| time (UTC) | temp C | wind direction | speed KPH | gust KPH | rain 1hr cm | rain 24hr cm | rain mn cm | humidity % | barometer mb |
| 20260507192605 | 9 | 334 | 3.2 | 8.0 | 0.00 | 0.00 | 0.00 | 81 | 1016.5 |
| 20260507192111 | 9 | 3 | 3.2 | 4.8 | 0.00 | 0.00 | 0.00 | 81 | 1016.4 |
| 20260507191617 | 9 | 333 | 1.6 | 4.8 | 0.00 | 0.00 | 0.00 | 80 | 1016.4 |
| 20260507191122 | 9 | 223 | 1.6 | 4.8 | 0.00 | 0.00 | 0.00 | 80 | 1016.4 |
| 20260507190628 | 9 | 293 | 1.6 | 4.8 | 0.00 | 0.00 | 0.00 | 81 | 1016.3 |
| 20260507185640 | 9 | 285 | 1.6 | 3.2 | 0.00 | 0.00 | 0.00 | 80 | 1016.1 |
| 20260507185146 | 10 | 340 | 1.6 | 3.2 | 0.00 | 0.00 | 0.00 | 80 | 1015.9 |
| 20260507184651 | 10 | 285 | 1.6 | 3.2 | 0.00 | 0.00 | 0.00 | 80 | 1015.8 |
| 20260507183703 | 10 | 307 | 1.6 | 4.8 | 0.00 | 0.00 | 0.00 | 80 | 1015.7 |
| 20260507183209 | 10 | 300 | 3.2 | 6.4 | 0.00 | 0.00 | 0.00 | 79 | 1015.7 |
| 20260507182715 | 10 | 282 | 3.2 | 6.4 | 0.00 | 0.00 | 0.00 | 79 | 1015.6 |
| 20260507182220 | 10 | 246 | 1.6 | 4.8 | 0.00 | 0.00 | 0.00 | 79 | 1015.6 |
| 20260507181726 | 10 | 355 | 3.2 | 4.8 | 0.00 | 0.00 | 0.00 | 80 | 1015.5 |
| 20260507181232 | 10 | 343 | 3.2 | 9.7 | 0.00 | 0.00 | 0.00 | 80 | 1015.4 |
| 20260507180738 | 11 | 13 | 3.2 | 6.4 | 0.00 | 0.00 | 0.00 | 80 | 1015.3 |
| 20260507180243 | 11 | 354 | 3.2 | 4.8 | 0.00 | 0.00 | 0.00 | 80 | 1015.2 |
| 20260507175749 | 11 | 332 | 3.2 | 8.0 | 0.00 | 0.00 | 0.00 | 80 | 1015.3 |
| 20260507175255 | 11 | 329 | 3.2 | 9.7 | 0.00 | 0.00 | 0.00 | 80 | 1015.1 |
| 20260507174801 | 11 | 318 | 3.2 | 8.0 | 0.00 | 0.00 | 0.00 | 80 | 1015.0 |
| 20260507174306 | 11 | 6 | 3.2 | 8.0 | 0.00 | 0.00 | 0.00 | 79 | 1015.0 |
| 20260507173812 | 11 | 333 | 1.6 | 4.8 | 0.00 | 0.00 | 0.00 | 79 | 1014.9 |
| 20260507172823 | 11 | 175 | 1.6 | 4.8 | 0.00 | 0.00 | 0.00 | 79 | 1014.8 |
| 20260507172329 | 11 | 327 | 1.6 | 3.2 | 0.00 | 0.00 | 0.00 | 79 | 1014.8 |
| 20260507171835 | 12 | 6 | 3.2 | 4.8 | 0.00 | 0.00 | 0.00 | 79 | 1014.8 |
| 20260507171341 | 12 | 9 | 3.2 | 4.8 | 0.00 | 0.00 | 0.00 | 78 | 1014.8 |
| 20260507170846 | 12 | 356 | 1.6 | 3.2 | 0.00 | 0.00 | 0.00 | 78 | 1014.7 |
| 20260507170352 | 12 | 335 | 1.6 | 4.8 | 0.00 | 0.00 | 0.00 | 77 | 1014.7 |
| 20260507165857 | 12 | 282 | 1.6 | 3.2 | 0.00 | 0.00 | 0.00 | 77 | 1014.6 |
| 20260507165403 | 12 | 192 | 1.6 | 4.8 | 0.00 | 0.00 | 0.00 | 77 | 1014.6 |
| 20260507164909 | 12 | 46 | 3.2 | 4.8 | 0.00 | 0.00 | 0.00 | 77 | 1014.5 |
| 20260507164414 | 12 | 70 | 3.2 | 4.8 | 0.00 | 0.00 | 0.00 | 77 | 1014.5 |
| 20260507163920 | 13 | 280 | 3.2 | 6.4 | 0.00 | 0.00 | 0.00 | 76 | 1014.5 |
| 20260507163425 | 13 | 167 | 3.2 | 4.8 | 0.00 | 0.00 | 0.00 | 77 | 1014.3 |
| 20260507162931 | 13 | 330 | 3.2 | 8.0 | 0.00 | 0.00 | 0.00 | 76 | 1014.3 |
| 20260507162436 | 13 | 172 | 3.2 | 8.0 | 0.00 | 0.00 | 0.00 | 76 | 1014.3 |
| 20260507161942 | 13 | 338 | 3.2 | 8.0 | 0.00 | 0.00 | 0.00 | 76 | 1014.3 |
| 20260507161448 | 13 | 322 | 3.2 | 8.0 | 0.00 | 0.00 | 0.00 | 75 | 1014.2 |
| 20260507160953 | 13 | 314 | 4.8 | 9.7 | 0.00 | 0.00 | 0.00 | 75 | 1014.3 |
| 20260507160459 | 13 | 318 | 4.8 | 9.7 | 0.00 | 0.00 | 0.00 | 76 | 1014.3 |
| 20260507160004 | 13 | 308 | 6.4 | 11.3 | 0.00 | 0.00 | 0.00 | 77 | 1014.3 |
| 20260507155510 | 14 | 323 | 4.8 | 8.0 | 0.00 | 0.00 | 0.00 | 76 | 1014.2 |
| 20260507155015 | 14 | 310 | 4.8 | 6.4 | 0.00 | 0.00 | 0.00 | 75 | 1014.1 |
| 20260507154521 | 14 | 330 | 4.8 | 11.3 | 0.00 | 0.00 | 0.00 | 74 | 1014.1 |
| 20260507154026 | 14 | 313 | 4.8 | 6.4 | 0.00 | 0.00 | 0.00 | 74 | 1014.0 |
| 20260507153532 | 15 | 329 | 4.8 | 9.7 | 0.00 | 0.00 | 0.00 | 73 | 1013.9 |
| 20260507152542 | 14 | 322 | 4.8 | 8.0 | 0.00 | 0.00 | 0.00 | 73 | 1013.9 |
| 20260507152048 | 14 | 313 | 3.2 | 8.0 | 0.00 | 0.00 | 0.00 | 72 | 1013.8 |
| 20260507151553 | 14 | 328 | 4.8 | 8.0 | 0.00 | 0.00 | 0.00 | 72 | 1013.9 |
| 20260507150604 | 15 | 357 | 3.2 | 6.4 | 0.00 | 0.00 | 0.00 | 70 | 1013.8 |
| 20260507150110 | 15 | 15 | 4.8 | 9.7 | 0.00 | 0.00 | 0.00 | 70 | 1013.8 |
| 20260507145120 | 15 | 332 | 4.8 | 9.7 | 0.00 | 0.00 | 0.00 | 70 | 1013.8 |
| 20260507144626 | 15 | 344 | 6.4 | 14.5 | 0.00 | 0.00 | 0.00 | 70 | 1013.7 |
| 20260507144131 | 15 | 330 | 4.8 | 12.9 | 0.00 | 0.00 | 0.00 | 70 | 1013.6 |
| 20260507143637 | 15 | 333 | 6.4 | 12.9 | 0.00 | 0.00 | 0.00 | 70 | 1013.6 |
| 20260507143142 | 15 | 325 | 8.0 | 12.9 | 0.00 | 0.00 | 0.00 | 70 | 1013.6 |
| 20260507142153 | 15 | 322 | 6.4 | 14.5 | 0.00 | 0.00 | 0.00 | 69 | 1013.6 |
| 20260507141658 | 15 | 311 | 9.7 | 16.1 | 0.00 | 0.00 | 0.00 | 67 | 1013.5 |
| 20260507141204 | 16 | 309 | 9.7 | 19.3 | 0.00 | 0.00 | 0.00 | 64 | 1013.4 |
| 20260507140710 | 16 | 313 | 8.0 | 16.1 | 0.00 | 0.00 | 0.00 | 62 | 1013.4 |
| 20260507140214 | 17 | 285 | 8.0 | 16.1 | 0.00 | 0.00 | 0.00 | 60 | 1013.3 |
| 20260507135719 | 17 | 315 | 6.4 | 14.5 | 0.00 | 0.00 | 0.00 | 59 | 1013.1 |
| 20260507135224 | 18 | 297 | 8.0 | 12.9 | 0.00 | 0.00 | 0.00 | 58 | 1013.0 |
| 20260507134234 | 18 | 257 | 6.4 | 11.3 | 0.00 | 0.00 | 0.00 | 62 | 1013.1 |
| 20260507133740 | 19 | 252 | 6.4 | 14.5 | 0.00 | 0.00 | 0.00 | 62 | 1013.0 |
| 20260507132749 | 18 | 266 | 9.7 | 14.5 | 0.00 | 0.00 | 0.00 | 63 | 1013.1 |
| 20260507132255 | 18 | 246 | 6.4 | 11.3 | 0.00 | 0.00 | 0.00 | 62 | 1013.0 |
| 20260507131305 | 17 | 298 | 6.4 | 12.9 | 0.00 | 0.00 | 0.00 | 61 | 1013.0 |
| 20260507130810 | 18 | 310 | 4.8 | 8.0 | 0.00 | 0.00 | 0.00 | 61 | 1013.0 |
| 20260507130315 | 18 | 293 | 3.2 | 8.0 | 0.00 | 0.00 | 0.00 | 62 | 1013.0 |
| 20260507125820 | 18 | 298 | 6.4 | 9.7 | 0.00 | 0.00 | 0.00 | 62 | 1013.0 |
| 20260507124831 | 18 | 279 | 6.4 | 12.9 | 0.00 | 0.00 | 0.00 | 63 | 1013.0 |
| 20260507124336 | 18 | 260 | 9.7 | 16.1 | 0.00 | 0.00 | 0.00 | 63 | 1013.0 |
| 20260507123841 | 18 | 291 | 6.4 | 11.3 | 0.00 | 0.00 | 0.00 | 61 | 1012.9 |
| 20260507123346 | 18 | 268 | 6.4 | 11.3 | 0.00 | 0.00 | 0.00 | 64 | 1012.9 |
| 20260507122851 | 18 | 279 | 6.4 | 12.9 | 0.00 | 0.00 | 0.00 | 63 | 1012.9 |
| 20260507121901 | 18 | 275 | 6.4 | 12.9 | 0.00 | 0.00 | 0.00 | 62 | 1012.9 |
| 20260507121407 | 18 | 253 | 4.8 | 17.7 | 0.00 | 0.00 | 0.00 | 63 | 1012.8 |
| 20260507120912 | 17 | 284 | 6.4 | 11.3 | 0.00 | 0.00 | 0.00 | 62 | 1012.8 |
| 20260507115922 | 17 | 272 | 8.0 | 12.9 | 0.00 | 0.00 | 0.00 | 63 | 1012.8 |
| 20260507115428 | 17 | 257 | 9.7 | 17.7 | 0.00 | 0.00 | 0.00 | 64 | 1012.8 |
| 20260507114933 | 17 | 231 | 8.0 | 12.9 | 0.00 | 0.00 | 0.00 | 64 | 1012.8 |
| 20260507114438 | 17 | 279 | 6.4 | 11.3 | 0.00 | 0.00 | 0.00 | 64 | 1012.8 |
| 20260507113944 | 17 | 285 | 8.0 | 12.9 | 0.00 | 0.00 | 0.00 | 64 | 1012.8 |
| 20260507113449 | 17 | 255 | 11.3 | 20.9 | 0.00 | 0.00 | 0.00 | 64 | 1012.7 |
| 20260507112954 | 17 | 264 | 8.0 | 16.1 | 0.00 | 0.00 | 0.00 | 65 | 1012.7 |
| 20260507112459 | 17 | 291 | 8.0 | 16.1 | 0.00 | 0.00 | 0.00 | 65 | 1012.6 |
| 20260507112005 | 17 | 282 | 9.7 | 14.5 | 0.00 | 0.00 | 0.00 | 63 | 1012.6 |
| 20260507111510 | 17 | 286 | 9.7 | 14.5 | 0.00 | 0.00 | 0.00 | 63 | 1012.4 |
| 20260507111015 | 16 | 300 | 8.0 | 16.1 | 0.00 | 0.00 | 0.00 | 66 | 1012.6 |
| 20260507110521 | 16 | 276 | 8.0 | 12.9 | 0.00 | 0.00 | 0.00 | 67 | 1012.6 |
| 20260507110026 | 16 | 296 | 8.0 | 14.5 | 0.00 | 0.00 | 0.00 | 66 | 1012.4 |
| 20260507105037 | 17 | 306 | 8.0 | 11.3 | 0.00 | 0.00 | 0.00 | 65 | 1012.5 |
| 20260507104047 | 18 | 277 | 6.4 | 11.3 | 0.00 | 0.00 | 0.00 | 67 | 1012.4 |
| 20260507103552 | 18 | 246 | 8.0 | 22.5 | 0.00 | 0.00 | 0.00 | 67 | 1012.4 |
| 20260507103057 | 18 | 264 | 6.4 | 11.3 | 0.00 | 0.00 | 0.00 | 67 | 1012.3 |
| 20260507102108 | 18 | 289 | 6.4 | 14.5 | 0.00 | 0.00 | 0.00 | 66 | 1012.2 |
| 20260507101613 | 17 | 287 | 6.4 | 12.9 | 0.00 | 0.00 | 0.00 | 69 | 1012.2 |
| 20260507101118 | 16 | 282 | 4.8 | 8.0 | 0.00 | 0.00 | 0.00 | 71 | 1012.2 |
| 20260507100624 | 16 | 270 | 4.8 | 9.7 | 0.00 | 0.00 | 0.00 | 73 | 1012.3 |
| 20260507100129 | 15 | 291 | 4.8 | 6.4 | 0.00 | 0.00 | 0.00 | 75 | 1012.3 |
| 20260507095635 | 15 | 312 | 4.8 | 8.0 | 0.00 | 0.00 | 0.00 | 76 | 1012.3 |
| 20260507095140 | 15 | 318 | 4.8 | 8.0 | 0.00 | 0.00 | 0.00 | 76 | 1012.3 |
| 20260507094646 | 15 | 299 | 4.8 | 6.4 | 0.00 | 0.00 | 0.00 | 76 | 1012.3 |
| 20260507094151 | 15 | 315 | 4.8 | 9.7 | 0.00 | 0.00 | 0.00 | 76 | 1012.3 |
| 20260507093657 | 15 | 303 | 6.4 | 9.7 | 0.00 | 0.00 | 0.00 | 76 | 1012.2 |
| 20260507093202 | 15 | 318 | 6.4 | 11.3 | 0.00 | 0.00 | 0.00 | 75 | 1012.1 |
| 20260507092708 | 15 | 324 | 8.0 | 11.3 | 0.00 | 0.00 | 0.00 | 74 | 1012.0 |
| 20260507092213 | 16 | 321 | 4.8 | 8.0 | 0.00 | 0.00 | 0.00 | 74 | 1012.1 |
| 20260507091718 | 16 | 321 | 8.0 | 12.9 | 0.00 | 0.00 | 0.00 | 74 | 1012.0 |
| 20260507091224 | 16 | 309 | 4.8 | 11.3 | 0.00 | 0.00 | 0.00 | 74 | 1012.0 |
| 20260507090729 | 16 | 312 | 8.0 | 11.3 | 0.00 | 0.00 | 0.00 | 73 | 1012.0 |
| 20260507085739 | 17 | 309 | 8.0 | 14.5 | 0.00 | 0.00 | 0.00 | 68 | 1011.7 |
| 20260507084749 | 19 | 255 | 11.3 | 20.9 | 0.00 | 0.00 | 0.00 | 67 | 1011.5 |
| 20260507084254 | 20 | 245 | 14.5 | 22.5 | 0.00 | 0.00 | 0.00 | 65 | 1011.5 |
| 20260507083759 | 20 | 245 | 12.9 | 20.9 | 0.00 | 0.00 | 0.00 | 66 | 1011.3 |
| 20260507083304 | 19 | 264 | 9.7 | 16.1 | 0.00 | 0.00 | 0.00 | 67 | 1011.3 |
| 20260507082809 | 19 | 238 | 14.5 | 30.6 | 0.00 | 0.00 | 0.00 | 66 | 1011.3 |
| 20260507082315 | 19 | 270 | 9.7 | 19.3 | 0.00 | 0.00 | 0.00 | 67 | 1011.1 |
| 20260507081819 | 18 | 234 | 8.0 | 12.9 | 0.00 | 0.00 | 0.00 | 70 | 1011.1 |
| 20260507081324 | 18 | 222 | 9.7 | 16.1 | 0.00 | 0.00 | 0.00 | 71 | 1011.2 |
| 20260507080830 | 17 | 257 | 8.0 | 14.5 | 0.00 | 0.00 | 0.00 | 72 | 1011.1 |
| 20260507080335 | 16 | 267 | 8.0 | 12.9 | 0.00 | 0.00 | 0.00 | 74 | 1011.1 |
| 20260507075346 | 15 | 228 | 12.9 | 19.3 | 0.00 | 0.00 | 0.00 | 74 | 1011.2 |
| 20260507074851 | 15 | 245 | 9.7 | 20.9 | 0.00 | 0.00 | 0.00 | 76 | 1011.2 |
| 20260507074357 | 15 | 249 | 8.0 | 12.9 | 0.00 | 0.00 | 0.00 | 78 | 1011.1 |
| 20260507073902 | 15 | 258 | 8.0 | 11.3 | 0.00 | 0.00 | 0.00 | 78 | 1011.0 |
| 20260507073408 | 15 | 282 | 8.0 | 12.9 | 0.00 | 0.00 | 0.00 | 78 | 1011.0 |
| 20260507072913 | 15 | 283 | 8.0 | 14.5 | 0.00 | 0.00 | 0.00 | 78 | 1010.8 |
| 20260507072419 | 15 | 285 | 8.0 | 11.3 | 0.00 | 0.00 | 0.00 | 80 | 1010.7 |
| 20260507071924 | 15 | 270 | 8.0 | 12.9 | 0.00 | 0.00 | 0.00 | 82 | 1010.8 |
| 20260507071430 | 14 | 248 | 6.4 | 9.7 | 0.00 | 0.00 | 0.00 | 83 | 1010.9 |
| 20260507070936 | 14 | 267 | 6.4 | 11.3 | 0.00 | 0.00 | 0.00 | 84 | 1010.9 |
| 20260507070441 | 13 | 268 | 6.4 | 11.3 | 0.00 | 0.00 | 0.00 | 84 | 1010.8 |
| 20260507065948 | 13 | 240 | 6.4 | 11.3 | 0.00 | 0.00 | 0.00 | 83 | 1010.8 |
| 20260507065453 | 13 | 239 | 6.4 | 11.3 | 0.00 | 0.00 | 0.00 | 83 | 1010.8 |
| 20260507064958 | 13 | 237 | 4.8 | 9.7 | 0.00 | 0.00 | 0.00 | 83 | 1010.8 |
| 20260507064010 | 13 | 267 | 6.4 | 11.3 | 0.00 | 0.00 | 0.00 | 84 | 1010.7 |
| 20260507062527 | 12 | 264 | 8.0 | 11.3 | 0.00 | 0.00 | 0.00 | 85 | 1010.6 |
| 20260507062032 | 12 | 239 | 6.4 | 11.3 | 0.00 | 0.00 | 0.00 | 86 | 1010.5 |
| 20260507061538 | 12 | 254 | 6.4 | 11.3 | 0.00 | 0.00 | 0.00 | 86 | 1010.5 |
| 20260507061044 | 12 | 251 | 6.4 | 11.3 | 0.00 | 0.00 | 0.00 | 86 | 1010.4 |
| 20260507060549 | 12 | 234 | 6.4 | 11.3 | 0.00 | 0.00 | 0.00 | 85 | 1010.4 |
| 20260507060055 | 12 | 248 | 4.8 | 9.7 | 0.00 | 0.00 | 0.00 | 85 | 1010.3 |
| 20260507055601 | 12 | 237 | 4.8 | 8.0 | 0.00 | 0.00 | 0.00 | 85 | 1010.3 |
| 20260507055107 | 12 | 240 | 4.8 | 9.7 | 0.00 | 0.00 | 0.00 | 85 | 1010.2 |
| 20260507054613 | 12 | 262 | 3.2 | 4.8 | 0.00 | 0.00 | 0.00 | 86 | 1010.2 |
| 20260507054118 | 12 | 262 | 3.2 | 4.8 | 0.00 | 0.00 | 0.00 | 85 | 1010.1 |
| 20260507053624 | 12 | 243 | 4.8 | 8.0 | 0.00 | 0.00 | 0.00 | 85 | 1010.2 |
| 20260507053130 | 12 | 254 | 4.8 | 8.0 | 0.00 | 0.00 | 0.00 | 85 | 1010.1 |
| 20260507052636 | 12 | 273 | 1.6 | 4.8 | 0.00 | 0.00 | 0.00 | 88 | 1010.0 |
| 20260507052141 | 12 | 285 | 3.2 | 6.4 | 0.00 | 0.00 | 0.00 | 88 | 1009.9 |
| 20260507051153 | 12 | 279 | 3.2 | 8.0 | 0.00 | 0.00 | 0.00 | 89 | 1009.8 |
| 20260507050659 | 12 | 289 | 3.2 | 4.8 | 0.00 | 0.00 | 0.00 | 89 | 1009.8 |
| 20260507050205 | 12 | 297 | 3.2 | 4.8 | 0.00 | 0.00 | 0.00 | 90 | 1009.8 |
| 20260507045710 | 11 | 291 | 1.6 | 4.8 | 0.00 | 0.00 | 0.00 | 91 | 1009.7 |
| 20260507045216 | 11 | 301 | 1.6 | 3.2 | 0.00 | 0.00 | 0.00 | 92 | 1009.6 |
| 20260507044722 | 11 | 303 | 3.2 | 8.0 | 0.00 | 0.00 | 0.00 | 93 | 1009.5 |
| 20260507044228 | 11 | 315 | 4.8 | 8.0 | 0.00 | 0.00 | 0.00 | 95 | 1009.4 |
| 20260507043734 | 11 | 318 | 6.4 | 11.3 | 0.00 | 0.00 | 0.00 | 95 | 1009.4 |
| 20260507043239 | 11 | 318 | 4.8 | 9.7 | 0.00 | 0.00 | 0.00 | 93 | 1009.3 |
| 20260507042745 | 11 | 321 | 4.8 | 8.0 | 0.00 | 0.00 | 0.00 | 91 | 1009.4 |
| 20260507042251 | 11 | 315 | 4.8 | 8.0 | 0.00 | 0.00 | 0.00 | 90 | 1009.3 |
| 20260507041757 | 12 | 315 | 4.8 | 11.3 | 0.00 | 0.00 | 0.00 | 90 | 1009.3 |
| 20260507041303 | 12 | 303 | 4.8 | 8.0 | 0.00 | 0.00 | 0.00 | 94 | 1009.2 |
| 20260507040808 | 11 | 305 | 4.8 | 8.0 | 0.00 | 0.00 | 0.00 | 97 | 1009.2 |
| 20260507040314 | 11 | 306 | 6.4 | 9.7 | 0.00 | 0.00 | 0.00 | 100 | 1009.1 |
| 20260507035820 | 11 | 328 | 6.4 | 9.7 | 0.00 | 0.00 | 0.00 | 100 | 1009.1 |
| 20260507035326 | 11 | 314 | 8.0 | 11.3 | 0.00 | 0.00 | 0.00 | 100 | 1009.1 |
| 20260507034832 | 11 | 303 | 8.0 | 12.9 | 0.00 | 0.00 | 0.00 | 100 | 1009.0 |
| 20260507034338 | 11 | 324 | 8.0 | 11.3 | 0.00 | 0.00 | 0.00 | 100 | 1008.9 |
| 20260507033844 | 11 | 306 | 8.0 | 12.9 | 0.00 | 0.00 | 0.00 | 99 | 1008.8 |
| 20260507033350 | 11 | 306 | 8.0 | 11.3 | 0.00 | 0.00 | 0.00 | 95 | 1008.9 |
| 20260507032855 | 11 | 288 | 8.0 | 14.5 | 0.00 | 0.00 | 0.00 | 94 | 1009.0 |
| 20260507032401 | 11 | 300 | 6.4 | 11.3 | 0.00 | 0.00 | 0.00 | 92 | 1009.0 |
| 20260507031907 | 11 | 298 | 6.4 | 11.3 | 0.00 | 0.00 | 0.00 | 92 | 1009.0 |
| 20260507031413 | 11 | 297 | 6.4 | 9.7 | 0.00 | 0.00 | 0.00 | 90 | 1008.9 |
| 20260507030919 | 11 | 279 | 4.8 | 8.0 | 0.00 | 0.00 | 0.00 | 87 | 1008.9 |
| 20260507030425 | 11 | 279 | 6.4 | 9.7 | 0.00 | 0.00 | 0.00 | 88 | 1008.9 |
| 20260507025931 | 11 | 324 | 4.8 | 6.4 | 0.00 | 0.00 | 0.00 | 89 | 1008.9 |
| 20260507025437 | 11 | 299 | 6.4 | 8.0 | 0.00 | 0.00 | 0.00 | 89 | 1008.8 |
| 20260507024942 | 11 | 305 | 4.8 | 9.7 | 0.00 | 0.00 | 0.00 | 88 | 1008.8 |
| 20260507024448 | 11 | 306 | 4.8 | 6.4 | 0.00 | 0.00 | 0.00 | 86 | 1008.8 |
| 20260507023954 | 11 | 282 | 3.2 | 6.4 | 0.00 | 0.00 | 0.00 | 85 | 1008.8 |
| 20260507023500 | 11 | 273 | 4.8 | 8.0 | 0.00 | 0.00 | 0.00 | 84 | 1008.8 |
| 20260507022017 | 11 | 302 | 3.2 | 4.8 | 0.00 | 0.00 | 0.00 | 88 | 1008.7 |
| 20260507021523 | 11 | 318 | 4.8 | 6.4 | 0.00 | 0.00 | 0.00 | 91 | 1008.6 |
| 20260507021029 | 12 | 315 | 6.4 | 9.7 | 0.00 | 0.00 | 0.00 | 91 | 1008.6 |
| 20260507020535 | 12 | 316 | 4.8 | 6.4 | 0.00 | 0.00 | 0.00 | 90 | 1008.6 |
| 20260507020040 | 12 | 305 | 4.8 | 8.0 | 0.00 | 0.00 | 0.00 | 91 | 1008.6 |
| 20260507015546 | 12 | 306 | 4.8 | 8.0 | 0.00 | 0.00 | 0.00 | 89 | 1008.7 |
| 20260507015052 | 12 | 321 | 4.8 | 8.0 | 0.00 | 0.00 | 0.00 | 89 | 1008.5 |
| 20260507014558 | 12 | 301 | 4.8 | 8.0 | 0.00 | 0.00 | 0.00 | 89 | 1008.5 |
| 20260507014103 | 12 | 277 | 3.2 | 4.8 | 0.00 | 0.00 | 0.00 | 87 | 1008.5 |
| 20260507013609 | 12 | 276 | 3.2 | 8.0 | 0.00 | 0.00 | 0.00 | 87 | 1008.6 |
| 20260507013115 | 12 | 303 | 3.2 | 4.8 | 0.00 | 0.00 | 0.00 | 87 | 1008.6 |
| 20260507012621 | 12 | 295 | 3.2 | 4.8 | 0.00 | 0.00 | 0.00 | 88 | 1008.5 |
| 20260507012126 | 12 | 316 | 3.2 | 4.8 | 0.00 | 0.00 | 0.00 | 89 | 1008.4 |
| 20260507011632 | 12 | 309 | 4.8 | 4.8 | 0.00 | 0.00 | 0.00 | 90 | 1008.4 |
| 20260507011138 | 12 | 314 | 4.8 | 4.8 | 0.00 | 0.00 | 0.00 | 90 | 1008.4 |
| 20260507010644 | 12 | 318 | 4.8 | 4.8 | 0.00 | 0.00 | 0.00 | 89 | 1008.3 |
| 20260507010149 | 12 | 303 | 3.2 | 4.8 | 0.00 | 0.00 | 0.00 | 88 | 1008.3 |
| 20260507005655 | 12 | 309 | 1.6 | 4.8 | 0.00 | 0.00 | 0.00 | 86 | 1008.2 |
| 20260507005201 | 12 | 315 | 1.6 | 3.2 | 0.00 | 0.00 | 0.00 | 86 | 1008.1 |
| 20260507004707 | 12 | 312 | 3.2 | 4.8 | 0.00 | 0.00 | 0.00 | 87 | 1008.1 |
| 20260507004213 | 12 | 312 | 4.8 | 6.4 | 0.00 | 0.00 | 0.00 | 88 | 1008.2 |
| 20260507003718 | 12 | 279 | 3.2 | 4.8 | 0.00 | 0.00 | 0.00 | 85 | 1008.2 |
| 20260507003224 | 12 | 225 | 1.6 | 3.2 | 0.00 | 0.00 | 0.00 | 83 | 1008.1 |
| 20260507002730 | 12 | 249 | 1.6 | 3.2 | 0.00 | 0.00 | 0.00 | 83 | 1008.0 |
| 20260507001741 | 12 | 244 | 1.6 | 4.8 | 0.00 | 0.00 | 0.00 | 83 | 1007.9 |
| 20260507001247 | 12 | 264 | 1.6 | 1.6 | 0.00 | 0.00 | 0.00 | 83 | 1007.9 |
| 20260507000753 | 12 | 330 | 1.6 | 3.2 | 0.00 | 0.00 | 0.00 | 83 | 1007.8 |
| 20260506235805 | 12 | 4 | 1.6 | 3.2 | 0.00 | 0.00 | 0.00 | 82 | 1007.6 |
| 20260506235311 | 12 | 341 | 1.6 | 3.2 | 0.00 | 0.00 | 0.00 | 82 | 1007.7 |
| 20260506234816 | 12 | 238 | 0.0 | 1.6 | 0.00 | 0.00 | 0.00 | 82 | 1007.8 |
| 20260506234322 | 12 | 187 | 0.0 | 3.2 | 0.00 | 0.00 | 0.00 | 83 | 1007.8 |
| 20260506233828 | 12 | 269 | 0.0 | 1.6 | 0.00 | 0.00 | 0.00 | 83 | 1007.7 |
| 20260506233333 | 12 | 298 | 0.0 | 1.6 | 0.00 | 0.00 | 0.00 | 84 | 1007.7 |
| 20260506232839 | 12 | 315 | 1.6 | 4.8 | 0.00 | 0.00 | 0.00 | 84 | 1007.7 |
| 20260506232345 | 12 | 321 | 3.2 | 3.2 | 0.00 | 0.00 | 0.00 | 85 | 1007.7 |
| 20260506231851 | 12 | 321 | 3.2 | 4.8 | 0.00 | 0.00 | 0.00 | 87 | 1007.7 |
| 20260506231356 | 12 | 307 | 4.8 | 8.0 | 0.00 | 0.00 | 0.00 | 89 | 1007.8 |
| 20260506230902 | 12 | 322 | 6.4 | 8.0 | 0.00 | 0.00 | 0.00 | 90 | 1007.7 |
| 20260506230408 | 12 | 316 | 4.8 | 8.0 | 0.00 | 0.00 | 0.00 | 87 | 1007.7 |
| 20260506225914 | 12 | 300 | 4.8 | 8.0 | 0.00 | 0.00 | 0.00 | 85 | 1007.7 |
| 20260506225420 | 12 | 289 | 4.8 | 6.4 | 0.00 | 0.00 | 0.00 | 81 | 1007.7 |
| 20260506224926 | 12 | 253 | 6.4 | 8.0 | 0.00 | 0.00 | 0.00 | 78 | 1007.7 |
| 20260506224431 | 12 | 255 | 4.8 | 8.0 | 0.00 | 0.00 | 0.00 | 78 | 1007.7 |
| 20260506223937 | 12 | 267 | 4.8 | 9.7 | 0.00 | 0.00 | 0.00 | 79 | 1007.7 |
| 20260506223443 | 12 | 248 | 4.8 | 8.0 | 0.00 | 0.00 | 0.00 | 79 | 1007.7 |
| 20260506222949 | 12 | 225 | 6.4 | 9.7 | 0.00 | 0.00 | 0.00 | 78 | 1007.7 |
| 20260506222455 | 12 | 258 | 4.8 | 9.7 | 0.00 | 0.00 | 0.00 | 80 | 1007.6 |
| 20260506221506 | 12 | 221 | 6.4 | 11.3 | 0.00 | 0.00 | 0.00 | 79 | 1007.7 |
| 20260506221012 | 12 | 224 | 6.4 | 9.7 | 0.00 | 0.00 | 0.00 | 79 | 1007.6 |
| 20260506220518 | 12 | 224 | 4.8 | 6.4 | 0.00 | 0.00 | 0.00 | 81 | 1007.6 |
| 20260506220023 | 12 | 196 | 8.0 | 9.7 | 0.00 | 0.00 | 0.00 | 83 | 1007.6 |
| 20260506215529 | 12 | 180 | 9.7 | 11.3 | 0.00 | 0.00 | 0.00 | 85 | 1007.5 |
| 20260506215035 | 12 | 174 | 8.0 | 9.7 | 0.00 | 0.00 | 0.00 | 86 | 1007.4 |
| 20260506214541 | 12 | 171 | 8.0 | 9.7 | 0.00 | 0.00 | 0.00 | 85 | 1007.4 |
| 20260506214046 | 12 | 174 | 8.0 | 11.3 | 0.00 | 0.00 | 0.00 | 84 | 1007.4 |
| 20260506213552 | 12 | 180 | 8.0 | 11.3 | 0.00 | 0.00 | 0.00 | 83 | 1007.4 |
| 20260506213058 | 13 | 177 | 6.4 | 9.7 | 0.00 | 0.00 | 0.00 | 83 | 1007.6 |
| 20260506212603 | 13 | 180 | 6.4 | 8.0 | 0.00 | 0.00 | 0.00 | 85 | 1007.5 |
| 20260506212109 | 13 | 180 | 6.4 | 8.0 | 0.00 | 0.00 | 0.00 | 84 | 1007.5 |
| 20260506211615 | 13 | 154 | 4.8 | 8.0 | 0.00 | 0.00 | 0.00 | 84 | 1007.4 |
| 20260506211121 | 13 | 164 | 3.2 | 4.8 | 0.00 | 0.00 | 0.00 | 84 | 1007.3 |
| 20260506210627 | 13 | 180 | 4.8 | 6.4 | 0.00 | 0.00 | 0.00 | 82 | 1007.4 |
| 20260506210132 | 13 | 174 | 6.4 | 9.7 | 0.00 | 0.00 | 0.00 | 83 | 1007.4 |
| 20260506205638 | 13 | 199 | 8.0 | 12.9 | 0.00 | 0.00 | 0.00 | 81 | 1007.3 |
| 20260506205143 | 13 | 231 | 9.7 | 14.5 | 0.00 | 0.00 | 0.00 | 79 | 1007.4 |
| 20260506204649 | 13 | 228 | 11.3 | 19.3 | 0.00 | 0.00 | 0.00 | 75 | 1007.4 |
| 20260506204155 | 13 | 248 | 4.8 | 8.0 | 0.00 | 0.00 | 0.00 | 71 | 1007.3 |
| 20260506203700 | 13 | 267 | 3.2 | 4.8 | 0.00 | 0.00 | 0.00 | 73 | 1007.1 |
| 20260506203206 | 13 | 316 | 1.6 | 1.6 | 0.00 | 0.00 | 0.00 | 75 | 1006.8 |
| 20260506202712 | 13 | 344 | 1.6 | 3.2 | 0.00 | 0.00 | 0.00 | 76 | 1006.6 |
| 20260506202217 | 13 | 327 | 1.6 | 3.2 | 0.00 | 0.00 | 0.00 | 76 | 1006.3 |
| 20260506201723 | 13 | 357 | 3.2 | 3.2 | 0.00 | 0.00 | 0.00 | 76 | 1006.2 |
| 20260506201229 | 13 | 14 | 3.2 | 4.8 | 0.00 | 0.00 | 0.00 | 75 | 1006.1 |
| 20260506200734 | 13 | 282 | 3.2 | 6.4 | 0.00 | 0.00 | 0.00 | 74 | 1006.3 |
| 20260506195746 | 13 | 237 | 8.0 | 11.3 | 0.00 | 0.00 | 0.00 | 70 | 1006.7 |
| 20260506195251 | 14 | 197 | 6.4 | 8.0 | 0.00 | 0.00 | 0.00 | 69 | 1006.5 |
| 20260506194757 | 14 | 158 | 4.8 | 6.4 | 0.00 | 0.00 | 0.00 | 72 | 1006.3 |
| 20260506194302 | 14 | 135 | 4.8 | 6.4 | 0.00 | 0.00 | 0.00 | 73 | 1006.1 |
| 20260506193808 | 14 | 126 | 1.6 | 4.8 | 0.00 | 0.00 | 0.00 | 68 | 1006.0 |
| 20260506193313 | 14 | 113 | 4.8 | 6.4 | 0.00 | 0.00 | 0.00 | 68 | 1006.0 |